| time (UTC) | temp C | wind direction | speed KPH | gust KPH | rain 1hr cm | rain 24hr cm | rain mn cm | humidity % | barometer mb |
| 20260506124534 | 10 | 49 | 4.8 | 6.4 | 0.00 | 0.00 | 0.00 | 93 | 1018.7 |
| 20260506123033 | 10 | 49 | 0.0 | 4.8 | 0.00 | 0.00 | 0.00 | 93 | 1018.4 |
| 20260506121533 | 10 | 49 | 0.0 | 6.4 | 0.00 | 0.00 | 0.00 | 93 | 1018.4 |
| 20260506120032 | 10 | 49 | 3.2 | 6.4 | 0.00 | 0.00 | 0.00 | 92 | 1018.3 |
| 20260506114539 | 10 | 49 | 4.8 | 8.0 | 0.00 | 0.00 | 0.00 | 92 | 1018.3 |
| 20260506113029 | 10 | 50 | 3.2 | 6.4 | 0.00 | 0.00 | 0.00 | 92 | 1018.4 |
| 20260506111527 | 10 | 50 | 4.8 | 6.4 | 0.00 | 0.00 | 0.00 | 92 | 1018.4 |
| 20260506110029 | 10 | 50 | 1.6 | 4.8 | 0.00 | 0.00 | 0.00 | 91 | 1018.3 |
| 20260506104524 | 10 | 50 | 3.2 | 4.8 | 0.00 | 0.00 | 0.00 | 91 | 1018.2 |
| 20260506103022 | 10 | 50 | 1.6 | 8.0 | 0.00 | 0.00 | 0.00 | 92 | 1018.2 |
| 20260506101539 | 10 | 50 | 3.2 | 8.0 | 0.00 | 0.00 | 0.00 | 92 | 1018.3 |
| 20260506100020 | 10 | 52 | 4.8 | 8.0 | 0.00 | 0.00 | 0.00 | 92 | 1018.3 |
| 20260506094519 | 10 | 54 | 6.4 | 9.7 | 0.00 | 0.00 | 0.00 | 92 | 1018.3 |
| 20260506093016 | 10 | 58 | 4.8 | 8.0 | 0.00 | 0.00 | 0.00 | 91 | 1018.3 |
| 20260506091520 | 10 | 57 | 4.8 | 8.0 | 0.00 | 0.00 | 0.00 | 91 | 1018.4 |
| 20260506090015 | 10 | 65 | 6.4 | 9.7 | 0.00 | 0.00 | 0.00 | 91 | 1018.4 |
| 20260506084517 | 10 | 67 | 3.2 | 6.4 | 0.00 | 0.00 | 0.00 | 90 | 1018.5 |
| 20260506083010 | 10 | 67 | 1.6 | 4.8 | 0.00 | 0.00 | 0.00 | 90 | 1018.5 |
| 20260506081509 | 11 | 67 | 1.6 | 6.4 | 0.00 | 0.00 | 0.00 | 90 | 1018.5 |
| 20260506073004 | 11 | 69 | 4.8 | 8.0 | 0.00 | 0.00 | 0.00 | 90 | 1018.4 |
| 20260506071502 | 11 | 64 | 3.2 | 6.4 | 0.00 | 0.00 | 0.00 | 90 | 1018.3 |
| 20260506070103 | 11 | 57 | 6.4 | 8.0 | 0.00 | 0.00 | 0.00 | 90 | 1018.1 |
| 20260506061557 | 11 | 15 | 3.2 | 8.0 | 0.00 | 0.00 | 0.00 | 89 | 1017.9 |
| 20260506044555 | 12 | 9 | 1.6 | 4.8 | 0.00 | 0.00 | 0.00 | 88 | 1017.1 |
| 20260506043048 | 12 | 9 | 4.8 | 0.0 | 0.00 | 0.00 | 0.00 | 89 | 1016.9 |
| 20260506041557 | 12 | 5 | 3.2 | 14.5 | 0.00 | 0.00 | 0.00 | 88 | 1016.6 |
| 20260506040045 | 12 | 321 | 4.8 | 14.5 | 0.00 | 0.00 | 0.00 | 88 | 1016.4 |
| 20260506034547 | 13 | 290 | 6.4 | 17.7 | 0.00 | 0.00 | 0.00 | 87 | 1016.4 |
| 20260506033045 | 13 | 302 | 6.4 | 16.1 | 0.00 | 0.00 | 0.00 | 86 | 1016.2 |
| 20260506031547 | 13 | 305 | 4.8 | 16.1 | 0.00 | 0.00 | 0.00 | 85 | 1016.1 |
| 20260506030044 | 13 | 313 | 4.8 | 17.7 | 0.00 | 0.00 | 0.00 | 84 | 1016.0 |
| 20260506024543 | 14 | 325 | 9.7 | 17.7 | 0.00 | 0.00 | 0.00 | 82 | 1016.0 |
| 20260506023044 | 15 | 302 | 6.4 | 19.3 | 0.00 | 0.00 | 0.00 | 81 | 1015.7 |
| 20260506021544 | 15 | 292 | 8.0 | 20.9 | 0.00 | 0.00 | 0.00 | 80 | 1015.8 |
| 20260506020041 | 15 | 281 | 12.9 | 24.1 | 0.00 | 0.00 | 0.00 | 79 | 1015.7 |
| 20260506014549 | 15 | 313 | 8.0 | 22.5 | 0.00 | 0.00 | 0.00 | 79 | 1015.7 |
| 20260506013041 | 16 | 259 | 12.9 | 22.5 | 0.00 | 0.00 | 0.00 | 78 | 1015.9 |
| 20260506011542 | 16 | 336 | 12.9 | 24.1 | 0.00 | 0.00 | 0.00 | 76 | 1015.8 |
| 20260506010038 | 16 | 268 | 12.9 | 27.4 | 0.00 | 0.00 | 0.00 | 76 | 1015.9 |
| 20260506004542 | 16 | 269 | 8.0 | 20.9 | 0.00 | 0.00 | 0.00 | 78 | 1015.7 |
| 20260506003037 | 16 | 273 | 11.3 | 22.5 | 0.00 | 0.00 | 0.00 | 77 | 1015.8 |
| 20260506001549 | 16 | 254 | 11.3 | 22.5 | 0.00 | 0.00 | 0.00 | 76 | 1016.1 |
| 20260506000043 | 17 | 254 | 11.3 | 25.7 | 0.00 | 0.00 | 0.00 | 74 | 1015.8 |
| 20260505234545 | 16 | 269 | 14.5 | 24.1 | 0.00 | 0.00 | 0.00 | 75 | 1015.9 |
| 20260505233034 | 16 | 305 | 11.3 | 22.5 | 0.00 | 0.00 | 0.00 | 74 | 1015.9 |
| 20260505231532 | 17 | 271 | 14.5 | 24.1 | 0.00 | 0.00 | 0.00 | 74 | 1016.0 |
| 20260505230033 | 16 | 320 | 11.3 | 20.9 | 0.00 | 0.00 | 0.00 | 77 | 1015.8 |
| 20260505224535 | 16 | 271 | 9.7 | 22.5 | 0.00 | 0.00 | 0.00 | 78 | 1015.9 |
| 20260505223038 | 17 | 267 | 9.7 | 19.3 | 0.00 | 0.00 | 0.00 | 76 | 1016.3 |
| 20260505221525 | 17 | 251 | 12.9 | 22.5 | 0.00 | 0.00 | 0.00 | 75 | 1016.4 |
| 20260505220034 | 16 | 272 | 8.0 | 20.9 | 0.00 | 0.00 | 0.00 | 77 | 1016.3 |
| 20260505214537 | 16 | 224 | 8.0 | 20.9 | 0.00 | 0.00 | 0.00 | 77 | 1016.5 |
| 20260505213033 | 16 | 263 | 11.3 | 24.1 | 0.00 | 0.00 | 0.00 | 75 | 1016.6 |
| 20260505211518 | 16 | 252 | 12.9 | 20.9 | 0.00 | 0.00 | 0.00 | 76 | 1016.6 |
| 20260505210016 | 16 | 286 | 12.9 | 25.7 | 0.00 | 0.00 | 0.00 | 76 | 1016.6 |
| 20260505204524 | 16 | 325 | 11.3 | 27.4 | 0.00 | 0.00 | 0.00 | 77 | 1016.6 |
| 20260505203012 | 16 | 293 | 11.3 | 20.9 | 0.00 | 0.00 | 0.00 | 76 | 1016.7 |
| 20260505201510 | 16 | 270 | 6.4 | 20.9 | 0.00 | 0.00 | 0.00 | 76 | 1016.6 |
| 20260505200009 | 15 | 275 | 12.9 | 20.9 | 0.00 | 0.00 | 0.00 | 75 | 1016.6 |
| 20260505194508 | 16 | 263 | 9.7 | 24.1 | 0.00 | 0.00 | 0.00 | 74 | 1016.5 |
| 20260505193010 | 16 | 272 | 11.3 | 20.9 | 0.00 | 0.00 | 0.00 | 73 | 1016.5 |
| 20260505191502 | 15 | 285 | 12.9 | 24.1 | 0.00 | 0.00 | 0.00 | 73 | 1016.6 |
| 20260505190115 | 15 | 267 | 8.0 | 17.7 | 0.00 | 0.00 | 0.00 | 77 | 1016.3 |
| 20260505184608 | 15 | 300 | 11.3 | 19.3 | 0.00 | 0.00 | 0.00 | 75 | 1016.4 |
| 20260505183056 | 15 | 250 | 9.7 | 17.7 | 0.00 | 0.00 | 0.00 | 76 | 1016.2 |
| 20260505181552 | 15 | 259 | 9.7 | 16.1 | 0.00 | 0.00 | 0.00 | 78 | 1016.1 |
| 20260505180050 | 14 | 213 | 8.0 | 11.3 | 0.00 | 0.00 | 0.00 | 78 | 1016.3 |
| 20260505174546 | 14 | 205 | 6.4 | 9.7 | 0.00 | 0.00 | 0.00 | 79 | 1016.0 |
| 20260505173046 | 14 | 199 | 4.8 | 9.7 | 0.00 | 0.00 | 0.00 | 78 | 1016.0 |
| 20260505171544 | 14 | 215 | 3.2 | 8.0 | 0.00 | 0.00 | 0.00 | 77 | 1016.1 |
| 20260505170040 | 14 | 204 | 4.8 | 9.7 | 0.00 | 0.00 | 0.00 | 77 | 1016.1 |
| 20260505164540 | 13 | 200 | 3.2 | 8.0 | 0.00 | 0.00 | 0.00 | 79 | 1015.9 |
| 20260505163038 | 13 | 209 | 4.8 | 9.7 | 0.00 | 0.00 | 0.00 | 76 | 1015.9 |
| 20260505161536 | 13 | 209 | 4.8 | 8.0 | 0.00 | 0.00 | 0.00 | 78 | 1015.8 |
| 20260505153031 | 12 | 197 | 4.8 | 8.0 | 0.00 | 0.00 | 0.00 | 83 | 1015.4 |
| 20260505151526 | 12 | 26 | 1.6 | 6.4 | 0.00 | 0.00 | 0.00 | 85 | 1015.3 |